Content
SEND FEEDBACK

Daily
Averages
Monthly
Summary
United States of America

TUCSON, ARIZONA


Home > North America > United States > Arizona
Elevation: 2584 feet     Latitude: 32 08N     Longitude: 110 56W

WEATHER
 
SELECT A DAY
Number of Records: 106,585;   Date Range: 1/1/02 - 7/7/14
 
SHARE

PRINT THIS DATA

[ ← Previous Day ]
WEATHER ALMANAC - FEBRUARY 14, 2013
[ Next Day → ]
[ °C ]   °F
Weather ElementAverageHighLow
Temperature49.2 °F66 °F (2:53 pm)34 °F (6:53 am)
Dewpoint26.8 °F30.9 °F (1:53 am)19 °F (3:53 pm)
Humidity48 %82 % (1:53 am)17 % (3:53 pm)
Barometer30.09 in30.14 in (2:53 am)30.01 in (5:53 pm)
Wind Speed6 mph12.7 mph (2:53 pm)
Weather ElementAverage
Visibility10 mi
Wind DirectionSSW (214.3 °)

Weather ElementTotal
Precipitation---
Heating Degree Days15 (Base 65)
Averaged from 23 records on February 14, 2013
WEATHER CONDITIONS BREAKOUT
WIND DIRECTION BREAKOUT
WEATHER BY HOUR - FEBRUARY 14, 2013
[ °C ]   °F
Local TimeTemperatureDewpointHumidityBarometerVisibilityWind DirectionWind SpeedGust SpeedPrecipitationEventsConditions
1:53 AM36.0 °F30.9 °F82 %30.11 in10.0 miSSE (150°)6.9 mphClear
2:53 AM37.4 °F30.2 °F75 %30.14 in10.0 miSE (140°)6.9 mphClear
3:53 AM35.1 °F28.9 °F78 %30.11 in10.0 miSSE (150°)5.8 mphClear
4:53 AM35.1 °F28.9 °F78 %30.11 in10.0 miSSE (150°)4.6 mphClear
5:53 AM35.1 °F28.0 °F76 %30.11 in10.0 miSSE (150°)6.9 mphClear
6:53 AM34.0 °F28.0 °F79 %30.12 in10.0 miSSE (150°)8.1 mphClear
7:53 AM36.0 °F28.0 °F73 %30.13 in10.0 miSSE (150°)6.9 mphClear
8:53 AM39.9 °F28.9 °F65 %30.14 in10.0 miSSE (150°)8.1 mphClear
9:53 AM46.9 °F28.0 °F48 %30.13 in10.0 miSSE (160°)4.6 mphClear
10:53 AM52.0 °F27.0 °F38 %30.13 in10.0 miESE (120°)3.5 mphClear
11:53 AM55.9 °F24.1 °F29 %30.11 in10.0 miCalmClear
12:53 PM60.1 °F23.0 °F24 %30.09 in10.0 miNNW (340°)5.8 mphClear
1:53 PM62.1 °F23.0 °F22 %30.05 in10.0 miNNW (330°)6.9 mphClear
2:53 PM66.0 °F21.9 °F19 %30.03 in10.0 miNNW (330°)12.7 mphClear
3:53 PM66.0 °F19.0 °F17 %30.02 in10.0 miNNW (340°)9.2 mphClear
4:53 PM64.0 °F21.9 °F20 %30.02 in10.0 miWest (280°)4.6 mphClear
5:53 PM62.1 °F24.1 °F23 %30.01 in10.0 miNNW (340°)4.6 mphClear
6:53 PM57.9 °F25.0 °F28 %30.04 in10.0 miNNW (330°)6.9 mphClear
7:53 PM53.1 °F28.0 °F38 %30.06 in10.0 miWSW (240°)4.6 mphClear
8:53 PM51.1 °F28.9 °F43 %30.08 in10.0 miWSW (250°)6.9 mphClear
9:53 PM48.9 °F30.0 °F48 %30.10 in10.0 miWest (270°)6.9 mphClear
10:53 PM48.9 °F28.9 °F46 %30.10 in10.0 miSSW (200°)3.5 mphClear
11:53 PM46.9 °F30.9 °F54 %30.11 in10.0 miSSW (210°)3.5 mphClear
Hourly data recorded from KTUS, located miles away from Tucson, Arizona







STORIES FROM OUR PARTNERS